User: anonymous   Login
Location: Colle Santa Colomba
(42.0333°N, 12.5667°E)
Time: 23:58:37
(UTC+00:00)
Language:

H-2A R/B - Orbit

View from above orbital plane
View from above orbital plane
View from above satellite
View from above satellite

Ground track
Ground track

The orbit data is extracted from the following two-line orbital elements,

1 28932U 06002B   22020.58742917  .00001438  00000-0  13526-3 0  9997
2 28932  98.3111  54.9129 0086969 216.0040 261.1821 14.92900942867978
Epoch (UTC): 20 January 2022 14:05:53
Eccentricity: 0.0086969
inclination: 98.3111°
perigee height: 528 km
apogee height: 649 km
right ascension of ascending node: 54.9129°
argument of perigee: 216.0040°
revolutions per day: 14.92900942
mean anomaly at epoch: 261.1821°
orbit number at epoch: 86797

The dashed part of the orbit path shows where the satellite is in the earth's shadow,  

DLR